Overview Statistics Trail Chart Weather Telemetry Raw packets
 

This is the latest recevied weather packets stored in our database for station/object N6ZHV-13. If no packets are shown the sender has not sent any weather packets the latest 10 day(s).

<< 108 109 110 111 112 113 114 >>
Time Temp. Humidity Pressure Rain* Wind** Luminosity Snow
1787880734 28.33° C 65% 1004.9 hPa 0 mm - - -
1787880434 28.33° C 65% 1005 hPa 0 mm - - -
1787880134 28.33° C 63% 1005 hPa 0 mm - - -
1787879834 28.89° C 60% 1005.1 hPa 0 mm - - -
1787879534 28.89° C 59% 1004.9 hPa 0 mm - - -
1787879234 28.89° C 57% 1004.8 hPa 0 mm - - -
1787878934 29.44° C 56% 1004.8 hPa 0 mm - - -
1787878634 30° C 54% 1004.9 hPa 0 mm - - -
1787878334 30° C 52% 1004.9 hPa 0 mm - - -
1787878034 31.11° C 52% 1004.8 hPa 0 mm - - -
1787877734 31.11° C 50% 1004.9 hPa 0 mm - - -
1787877434 32.22° C 47% 1004.9 hPa 0 mm - - -
1787877134 32.78° C 45% 1004.7 hPa 0 mm - - -
1787876834 32.78° C 42% 1004.7 hPa 0 mm - - -
1787876534 33.33° C 41% 1004.8 hPa 0 mm - - -
1787876234 33.33° C 41% 1004.9 hPa 0 mm - - -
1787875934 33.89° C 40% 1005 hPa 0 mm - - -
1787875634 33.89° C 39% 1005.1 hPa 0 mm - - -
1787875334 33.89° C 39% 1005.1 hPa 0 mm - - -
1787875034 33.89° C 38% 1005.1 hPa 0 mm - - -
1787874734 33.89° C 37% 1005.1 hPa 0 mm - - -
1787874434 34.44° C 36% 1005.1 hPa 0 mm - - -
1787874134 35° C 33% 1004.9 hPa 0 mm - - -
1787873834 35° C 33% 1005.1 hPa 0 mm - - -
1787873534 34.44° C 33% 1005.2 hPa 0 mm - - -

* Rain latest hour (hover to see other rain measurements)
** Current wind speed in m/s (hover to see current wind gust speed)